Voltar ao catálogo

STARLINK-33963

AtivoComunicaçõesVLEO
NORAD 63968·PAYLOAD·🇺🇸 United States

Lançado May 13, 2025 de Cape Canaveral Space Force Station

Loading…

Próximas Passagens (próximas 24 horas)

TLE

AtualizadoSource: CelesTrak SupGP

Época: Sep 15, 2026, 02:56 UTC

1 63968C 25099S   26258.12270833 -.00050278  00000+0 -18214-2 0  2585
2 63968  43.0005 186.1307 0001402 277.4636 338.5661 15.27597105    19

Acompanhe STARLINK-33963 em tempo real com AllMySat

Download on the App Store